SWR98P LSZH-LEMG

Flight info

Callsign SWR98P
Flight time N/A
Altitude 33000
Route VEBIT T50 ROTOS Z669 ULMES DCT VADAR DCT NINTU/N0434F350 DCT MEBAK DCT REPSI DCT LERGA DCT MINSO DCT NARAK DCT AGN DCT MAQAB DCT TIVLI DCT ELSAP DCT ZAR DCT EXEMU DCT PISUS DCT EDIMU DCT ADUXO DCT NUSGO DCT OBIBO DCT NASOS DCT ANZAN DCT BLN
Aircraft A21N/M-SDE2E3FGHIRWXY/LB1

Departure

Time 2026-04-26 07:13
Airport Zürich Airport (LSZH)

Arrival

Time N/A
Airport Málaga-Costa del Sol Airport (LEMG)
Time Latitude Longitude Altitude Speed Heading
2026-04-26 06:36 47.45338 8.55861 1412 ft 0 kts
2026-04-26 07:00 47.45323 8.55859 1418 ft 4 kts
2026-04-26 07:00 47.45297 8.55858 1415 ft 4 kts 346°
2026-04-26 07:01 47.45276 8.55867 1412 ft 4 kts 337°
2026-04-26 07:01 47.45256 8.55888 1420 ft 4 kts 297°
2026-04-26 07:01 47.45252 8.55903 1416 ft 0 kts 276°
2026-04-26 07:05 47.45253 8.55895 1416 ft 2 kts 276°
2026-04-26 07:05 47.45256 8.55856 1413 ft 5 kts 276°
2026-04-26 07:05 47.45260 8.55791 1412 ft 8 kts 275°
2026-04-26 07:05 47.45267 8.55701 1412 ft 10 kts 276°
2026-04-26 07:06 47.45276 8.55608 1415 ft 8 kts 290°
2026-04-26 07:06 47.45321 8.55547 1412 ft 10 kts 334°
2026-04-26 07:06 47.45390 8.55500 1414 ft 12 kts 335°
2026-04-26 07:06 47.45461 8.55451 1413 ft 9 kts 335°
2026-04-26 07:07 47.45520 8.55459 1413 ft 10 kts 52°
2026-04-26 07:07 47.45520 8.55575 1412 ft 12 kts 97°
2026-04-26 07:07 47.45512 8.55699 1413 ft 13 kts 96°
2026-04-26 07:07 47.45502 8.55840 1414 ft 15 kts 96°
2026-04-26 07:08 47.45491 8.55992 1417 ft 15 kts 96°
2026-04-26 07:08 47.45481 8.56125 1412 ft 12 kts 96°
2026-04-26 07:08 47.45498 8.56249 1416 ft 14 kts 54°
2026-04-26 07:08 47.45551 8.56346 1418 ft 11 kts 51°
2026-04-26 07:09 47.45591 8.56431 1419 ft 10 kts 73°
2026-04-26 07:09 47.45589 8.56548 1424 ft 13 kts 96°
2026-04-26 07:09 47.45580 8.56682 1423 ft 14 kts 96°
2026-04-26 07:09 47.45570 8.56826 1425 ft 12 kts 95°
2026-04-26 07:10 47.45572 8.56983 1427 ft 0 kts 56°
2026-04-26 07:11 47.45573 8.56985 1427 ft 1 kts 56°
2026-04-26 07:11 47.45590 8.57006 1428 ft 5 kts 30°
2026-04-26 07:11 47.45629 8.57023 1430 ft 6 kts
2026-04-26 07:12 47.45660 8.57003 1430 ft 5 kts 298°
2026-04-26 07:12 47.45662 8.56989 1430 ft 0 kts 277°
2026-04-26 07:12 47.45663 8.56988 1430 ft 1 kts 277°
2026-04-26 07:13 47.45688 8.56652 1422 ft 71 kts 276°
2026-04-26 07:13 47.45766 8.55564 1412 ft 138 kts 276°
2026-04-26 07:13 47.45888 8.54010 1617 ft 157 kts 277°
2026-04-26 07:13 47.45998 8.52388 2169 ft 161 kts 275°
2026-04-26 07:14 47.46081 8.50707 2680 ft 169 kts 277°
2026-04-26 07:14 47.46204 8.48863 3031 ft 189 kts 279°
2026-04-26 07:14 47.46302 8.47550 3357 ft 199 kts 273°
2026-04-26 07:14 47.45639 8.44958 3913 ft 220 kts 223°
2026-04-26 07:15 47.44232 8.43902 4232 ft 242 kts 188°
2026-04-26 07:15 47.43122 8.43507 4595 ft 254 kts 199°
2026-04-26 07:15 47.41624 8.41962 5057 ft 278 kts 232°
2026-04-26 07:15 47.40704 8.39390 5838 ft 284 kts 245°
2026-04-26 07:16 47.39783 8.36840 6941 ft 279 kts 239°
2026-04-26 07:16 47.38772 8.34384 7821 ft 281 kts 242°
2026-04-26 07:16 47.37871 8.31802 8657 ft 284 kts 245°
2026-04-26 07:16 47.36971 8.29171 9431 ft 290 kts 244°
2026-04-26 07:17 47.36051 8.26512 10251 ft 293 kts 244°
2026-04-26 07:17 47.35107 8.23814 10735 ft 308 kts 244°
2026-04-26 07:17 47.34093 8.20931 11121 ft 325 kts 244°
2026-04-26 07:17 47.33029 8.17926 11705 ft 333 kts 244°
2026-04-26 07:18 47.31949 8.14892 12476 ft 336 kts 244°
2026-04-26 07:18 47.30862 8.11834 13279 ft 338 kts 244°
2026-04-26 07:18 47.29767 8.08749 14062 ft 341 kts 244°
2026-04-26 07:18 47.28658 8.05636 14730 ft 344 kts 243°
2026-04-26 07:19 47.27537 8.02492 15386 ft 348 kts 244°
2026-04-26 07:19 47.26492 7.99304 16038 ft 351 kts 248°
2026-04-26 07:19 47.25544 7.95953 16709 ft 355 kts 249°
2026-04-26 07:19 47.24602 7.92553 17365 ft 359 kts 249°
2026-04-26 07:20 47.23652 7.89127 18037 ft 363 kts 249°
2026-04-26 07:20 47.22701 7.85715 18653 ft 366 kts 249°
2026-04-26 07:20 47.21723 7.82224 19236 ft 369 kts 249°
2026-04-26 07:20 47.20740 7.78725 19834 ft 371 kts 249°
2026-04-26 07:21 47.19746 7.75194 20426 ft 373 kts 249°
2026-04-26 07:21 47.18585 7.71781 20997 ft 377 kts 238°
2026-04-26 07:21 47.17005 7.68676 21586 ft 379 kts 233°
2026-04-26 07:21 47.15366 7.65681 22159 ft 382 kts 232°
2026-04-26 07:22 47.13686 7.62619 22753 ft 384 kts 232°
2026-04-26 07:22 47.12006 7.59545 23294 ft 386 kts 232°
2026-04-26 07:22 47.10322 7.56451 23830 ft 388 kts 233°